Weather reports worldwide

Advertisment
Bolzano, Italy (16020): temperature & dewpoint: 15.09.2018 01:00:00 - 21.09.2018 01:00:00 (CEST)Bolzano, Italy (16020): wind speed: 15.09.2018 01:00:00 - 21.09.2018 01:00:00 (CEST)Bolzano, Italy (16020): wind direction: 15.09.2018 01:00:00 - 21.09.2018 01:00:00 (CEST)Bolzano, Italy (16020): reduced air pressure: 15.09.2018 01:00:00 - 21.09.2018 01:00:00 (CEST)Bolzano, Italy (16020): visibility: 15.09.2018 01:00:00 - 21.09.2018 01:00:00 (CEST)Bolzano, Italy (16020): precipitation: 15.09.2018 01:00:00 - 21.09.2018 01:00:00 (CEST)
Date & Time tt [°C] td [°C] ff [km/h] ff [kn] dd ppp [hPa] vv [km] rr [mm]
21.09.2018 01:00:00 - - - - - - - -
21.09.2018 00:00:00 - - - - - - - -
20.09.2018 23:00:00 18,3 15,3 0 0 N 1018,9 10 -
20.09.2018 22:00:00 20,0 16,0 0 0 N - 10 -
20.09.2018 21:00:00 20,0 15,0 0 0 N - 10 -
20.09.2018 20:00:00 21,7 16,1 4 2 N 1017,0 10 0,0
20.09.2018 19:00:00 24,0 16,0 8 4 S - 10 -
20.09.2018 18:00:00 28,0 14,0 5 3 S - 10 -
20.09.2018 17:00:00 29,0 15,0 8 4 SSW 1015,7 10 -
20.09.2018 16:00:00 29,0 14,0 8 4 S - 10 -
20.09.2018 15:00:00 28,0 15,0 5 3 S - 10 -
20.09.2018 14:00:00 27,3 14,4 5 3 W 1018,1 10 0,0
20.09.2018 13:00:00 25,0 12,0 5 3 S - 10 -
20.09.2018 12:00:00 23,0 14,0 5 3 SSE - 10 -
20.09.2018 11:00:00 22,4 13,4 5 3 S 1021,6 10 -
20.09.2018 10:00:00 19,0 14,0 5 3 E - 10 -
20.09.2018 09:00:00 15,0 13,0 0 0 N - 10 -
20.09.2018 08:00:00 14,2 13,0 0 0 N 1023,2 10 0,0
20.09.2018 07:00:00 14,0 13,0 0 0 N - 10 -
20.09.2018 06:00:00 - - - - - - - -
20.09.2018 05:00:00 14,7 13,3 2 1 ESE 1022,5 - -
20.09.2018 04:00:00 - - - - - - - -
20.09.2018 03:00:00 - - - - - - - -
20.09.2018 02:00:00 16,4 14,1 2 1 SE 1022,3 - 0,0
20.09.2018 01:00:00 - - - - - - - -
20.09.2018 00:00:00 - - - - - - - -
19.09.2018 23:00:00 19,0 15,2 0 0 N 1021,5 10 -
19.09.2018 22:00:00 19,0 16,0 0 0 N - 10 -
19.09.2018 21:00:00 20,0 16,0 4 2 S - 10 -
19.09.2018 20:00:00 20,8 16,9 0 0 N 1019,0 10 0,0
19.09.2018 19:00:00 26,0 16,0 5 3 S - 10 -
19.09.2018 18:00:00 27,0 15,0 9 5 SSE - 10 -
19.09.2018 17:00:00 28,1 16,5 8 4 SSW 1016,8 10 -
19.09.2018 16:00:00 28,0 14,0 0 0 N - 10 -
19.09.2018 15:00:00 28,0 15,0 5 3 S - 10 -
19.09.2018 14:00:00 26,9 13,5 5 3 SW 1018,7 10 0,0
19.09.2018 13:00:00 24,0 13,0 4 2 S - 10 -
19.09.2018 12:00:00 23,0 15,0 5 3 ESE - 10 -
19.09.2018 11:00:00 22,4 14,9 8 4 SE 1021,8 10 -
19.09.2018 10:00:00 20,0 14,0 5 3 E - 10 -
19.09.2018 09:00:00 17,0 14,0 4 2 SSE - 10 -
19.09.2018 08:00:00 17,0 13,5 8 4 NNE 1022,6 10 0,0
19.09.2018 07:00:00 17,0 14,0 5 3 NNE - 10 -
19.09.2018 06:00:00 - - - - - - - -
19.09.2018 05:00:00 17,1 14,7 2 1 NW 1021,6 - -
19.09.2018 04:00:00 - - - - - - - -
19.09.2018 03:00:00 - - - - - - - -
19.09.2018 02:00:00 18,6 15,5 4 2 N 1021,5 - 0,0
19.09.2018 01:00:00 - - - - - - - -
19.09.2018 00:00:00 - - - - - - - -
18.09.2018 23:00:00 18,9 16,7 5 3 SSW 1020,9 10 -
18.09.2018 22:00:00 20,0 17,0 4 2 - - 10 -
18.09.2018 21:00:00 20,0 18,0 4 2 SSW - 10 -
18.09.2018 20:00:00 20,3 18,3 0 0 N 1019,7 10 -
18.09.2018 19:00:00 22,0 19,0 4 2 - - 10 -
18.09.2018 18:00:00 23,0 18,0 8 4 WSW - 10 -
18.09.2018 17:00:00 24,2 17,2 4 2 - 1018,1 10 -
18.09.2018 16:00:00 24,0 19,0 9 5 S - 10 -
18.09.2018 15:00:00 25,0 17,0 13 7 S - 10 -
18.09.2018 14:00:00 27,6 15,5 0 0 N 1018,1 10 0,0
18.09.2018 13:00:00 24,0 16,0 0 0 N - 10 -
18.09.2018 12:00:00 24,0 16,0 0 0 N - 10 -
18.09.2018 11:00:00 22,6 16,1 4 2 - 1020,8 9 -
18.09.2018 10:00:00 20,0 17,0 0 0 N - 9 -
18.09.2018 09:00:00 17,0 16,0 0 0 N - 9 -
18.09.2018 08:00:00 16,1 15,3 2 1 E 1021,7 10 0,0
18.09.2018 07:00:00 16,0 15,0 0 0 N - 10 -
18.09.2018 06:00:00 - - - - - - - -
18.09.2018 05:00:00 16,7 15,5 2 1 S 1021,1 - -
18.09.2018 04:00:00 - - - - - - - -
18.09.2018 03:00:00 - - - - - - - -
18.09.2018 02:00:00 17,8 16,2 2 1 E 1020,8 - 0,0
18.09.2018 01:00:00 - - - - - - - -
18.09.2018 00:00:00 - - - - - - - -
17.09.2018 23:00:00 23,4 16,1 5 3 - 1019,9 10 -
17.09.2018 22:00:00 24,0 16,0 8 4 SE - 10 -
17.09.2018 21:00:00 24,0 16,0 8 4 SSE - 10 -
17.09.2018 20:00:00 24,3 16,1 11 6 SSE 1018,5 10 0,0
17.09.2018 19:00:00 26,0 16,0 15 8 SSE - 10 -
17.09.2018 18:00:00 27,0 16,0 9 5 SSE - 10 -
17.09.2018 17:00:00 29,9 15,1 8 4 SE 1016,4 10 -
17.09.2018 16:00:00 29,0 14,0 8 4 SSE - 10 -
17.09.2018 15:00:00 29,0 14,0 5 3 - - 10 -
17.09.2018 14:00:00 28,4 15,5 8 4 S 1019,1 10 0,0
17.09.2018 13:00:00 27,0 16,0 0 0 N - 10 -
17.09.2018 12:00:00 24,0 16,0 4 2 - - 9 -
17.09.2018 11:00:00 24,2 16,6 0 0 N 1022,1 8 -
17.09.2018 10:00:00 21,0 17,0 0 0 N - 10 -
17.09.2018 09:00:00 18,0 17,0 0 0 N - 8 -
17.09.2018 08:00:00 17,2 16,4 0 0 N 1023,0 8 0,0
17.09.2018 07:00:00 16,0 16,0 0 0 N - 10 -
17.09.2018 06:00:00 - - - - - - - -
17.09.2018 05:00:00 17,3 16,1 2 1 W 1022,3 - -
17.09.2018 04:00:00 - - - - - - - -
17.09.2018 03:00:00 - - - - - - - -
17.09.2018 02:00:00 19,5 17,2 2 1 NNE 1021,9 - 0,0
17.09.2018 01:00:00 - - - - - - - -
17.09.2018 00:00:00 - - - - - - - -
16.09.2018 23:00:00 20,7 17,0 2 1 - 1022,0 10 -
16.09.2018 22:00:00 22,0 17,0 2 1 - - 10 -
16.09.2018 21:00:00 24,0 17,0 8 4 SSE - 10 -
16.09.2018 20:00:00 24,1 16,5 8 4 SSE 1020,2 10 0,0
16.09.2018 19:00:00 25,0 17,0 9 5 S - 10 -
16.09.2018 18:00:00 28,0 16,0 11 6 SSE - 10 -
16.09.2018 17:00:00 28,1 15,1 11 6 SSE 1018,6 10 -
16.09.2018 16:00:00 29,0 16,0 9 5 S - 10 -
16.09.2018 15:00:00 28,0 16,0 9 5 SSW - 10 -
16.09.2018 14:00:00 28,0 15,8 5 3 S 1020,4 10 0,0
16.09.2018 13:00:00 26,0 16,0 5 3 WSW - 10 -
16.09.2018 12:00:00 25,0 17,0 0 0 N - 10 -
16.09.2018 11:00:00 23,9 17,0 0 0 N 1023,2 10 -
16.09.2018 10:00:00 20,0 17,0 0 0 N - 10 -
16.09.2018 09:00:00 19,0 18,0 0 0 N - 10 -
16.09.2018 08:00:00 17,9 17,1 0 0 N 1023,6 10 0,0
16.09.2018 07:00:00 17,0 17,0 0 0 N - 10 -
16.09.2018 06:00:00 - - - - - - - -
16.09.2018 05:00:00 18,1 16,8 2 1 WNW 1022,8 - -
16.09.2018 04:00:00 - - - - - - - -
16.09.2018 03:00:00 - - - - - - - -
16.09.2018 02:00:00 20,1 16,5 2 1 NW 1022,6 - 0,0
16.09.2018 01:00:00 - - - - - - - -
16.09.2018 00:00:00 - - - - - - - -
15.09.2018 23:00:00 19,7 17,2 0 0 N 1021,8 10 -
15.09.2018 22:00:00 21,0 17,0 2 1 - - 10 -
15.09.2018 21:00:00 25,0 16,0 9 5 SSE - 10 -
15.09.2018 20:00:00 24,2 16,3 9 5 SSE 1019,0 10 0,0
15.09.2018 19:00:00 26,0 17,0 11 6 SSE - 10 -
15.09.2018 18:00:00 28,0 16,0 9 5 S - 10 -
15.09.2018 17:00:00 29,0 16,7 9 5 S 1017,0 10 -
15.09.2018 16:00:00 29,0 16,0 9 5 S - 10 -
15.09.2018 15:00:00 27,0 14,0 15 8 SSW - 10 -
15.09.2018 14:00:00 27,6 15,3 11 6 S 1018,6 10 0,0
15.09.2018 13:00:00 25,0 17,0 9 5 SSE - 10 -
15.09.2018 12:00:00 24,0 19,0 9 5 S - 10 -
15.09.2018 11:00:00 22,3 15,9 0 0 N 1020,8 10 -
15.09.2018 10:00:00 19,0 17,0 5 3 ESE - 10 -
15.09.2018 09:00:00 17,0 17,0 5 3 SW - 10 -
15.09.2018 08:00:00 16,6 16,3 4 2 - 1021,3 10 -
15.09.2018 07:00:00 16,0 16,0 0 0 N - 10 -
15.09.2018 06:00:00 - - - - - - - -
15.09.2018 05:00:00 16,8 16,4 5 3 NNW 1019,8 - -
15.09.2018 04:00:00 - - - - - - - -
15.09.2018 03:00:00 - - - - - - - -
15.09.2018 02:00:00 17,7 17,0 8 4 SSE 1019,9 - -
15.09.2018 01:00:00 - - - - - - - -

tt = temperature
td = dewpoint
ff = wind speed
dd = wind direction
ppp = reduced air pressure
vv = visibility
rr = precipitation

Next stations